UAL2342 KORD-KPBI

Flight info

Callsign UAL2342
Flight time 2h 24m
Altitude 37000
Route DENNT DARCY DREGS DUMGE SCOTO SWAPP Q79 ZPLEN VUUDU1
Aircraft B737/M-SDE2E3FGHIRWXY/LB1

Departure

Time 2026-04-22 14:14
Airport Chicago O'Hare International Airport (KORD)

Arrival

Time 2026-04-22 16:39
Airport Palm Beach International Airport (KPBI)
Time Latitude Longitude Altitude Speed Heading
2026-04-22 13:54 41.97989 -87.90695 674 ft 0 kts 99°
2026-04-22 14:03 41.97990 -87.90706 674 ft 2 kts 99°
2026-04-22 14:03 41.97993 -87.90726 674 ft 2 kts 99°
2026-04-22 14:04 41.97995 -87.90740 674 ft 0 kts 99°
2026-04-22 14:04 41.97995 -87.90757 674 ft 2 kts 64°
2026-04-22 14:04 41.97984 -87.90772 674 ft 2 kts 24°
2026-04-22 14:04 41.97977 -87.90775 674 ft 1 kts
2026-04-22 14:05 41.97973 -87.90775 674 ft 0 kts
2026-04-22 14:05 41.97975 -87.90775 674 ft 0 kts
2026-04-22 14:06 41.97986 -87.90773 674 ft 2 kts
2026-04-22 14:06 41.98009 -87.90768 674 ft 7 kts
2026-04-22 14:06 41.98104 -87.90765 674 ft 15 kts 352°
2026-04-22 14:06 41.98210 -87.90785 674 ft 15 kts
2026-04-22 14:07 41.98270 -87.90695 674 ft 14 kts 87°
2026-04-22 14:07 41.98272 -87.90536 674 ft 19 kts 83°
2026-04-22 14:07 41.98271 -87.90364 674 ft 17 kts 91°
2026-04-22 14:07 41.98275 -87.90201 674 ft 16 kts 88°
2026-04-22 14:08 41.98278 -87.90049 674 ft 16 kts 90°
2026-04-22 14:08 41.98273 -87.89888 674 ft 18 kts 94°
2026-04-22 14:08 41.98271 -87.89709 674 ft 19 kts 90°
2026-04-22 14:08 41.98257 -87.89531 674 ft 18 kts 116°
2026-04-22 14:09 41.98166 -87.89417 674 ft 17 kts 134°
2026-04-22 14:09 41.98079 -87.89301 674 ft 16 kts 135°
2026-04-22 14:09 41.97987 -87.89245 674 ft 15 kts 216°
2026-04-22 14:09 41.97918 -87.89352 674 ft 15 kts 231°
2026-04-22 14:10 41.97815 -87.89411 674 ft 18 kts 180°
2026-04-22 14:10 41.97679 -87.89410 674 ft 19 kts 180°
2026-04-22 14:10 41.97549 -87.89411 674 ft 18 kts 181°
2026-04-22 14:10 41.97425 -87.89410 674 ft 17 kts 179°
2026-04-22 14:11 41.97292 -87.89409 674 ft 19 kts 180°
2026-04-22 14:11 41.97180 -87.89368 674 ft 15 kts 109°
2026-04-22 14:11 41.97178 -87.89226 674 ft 15 kts 89°
2026-04-22 14:11 41.97178 -87.89067 674 ft 18 kts 90°
2026-04-22 14:12 41.97180 -87.88879 674 ft 21 kts 88°
2026-04-22 14:12 41.97184 -87.88665 674 ft 24 kts 88°
2026-04-22 14:12 41.97183 -87.88425 674 ft 26 kts 101°
2026-04-22 14:12 41.97157 -87.88184 674 ft 25 kts 90°
2026-04-22 14:13 41.97117 -87.88017 674 ft 14 kts 169°
2026-04-22 14:13 41.97018 -87.88015 674 ft 13 kts 181°
2026-04-22 14:13 41.96931 -87.88003 674 ft 12 kts 210°
2026-04-22 14:13 41.96865 -87.88080 674 ft 15 kts 223°
2026-04-22 14:14 41.96585 -87.88417 674 ft 94 kts 221°
2026-04-22 14:14 41.95898 -87.89233 675 ft 163 kts 223°
2026-04-22 14:14 41.94972 -87.90333 1143 ft 187 kts 223°
2026-04-22 14:14 41.93967 -87.91518 1902 ft 201 kts 224°
2026-04-22 14:15 41.92913 -87.92727 2837 ft 201 kts 218°
2026-04-22 14:15 41.91525 -87.93402 3344 ft 228 kts 187°
2026-04-22 14:15 41.89886 -87.93210 3955 ft 247 kts 170°
2026-04-22 14:15 41.88173 -87.92580 4722 ft 258 kts 164°
2026-04-22 14:16 41.85893 -87.91543 5829 ft 269 kts 163°
2026-04-22 14:16 41.84704 -87.90999 6251 ft 279 kts 163°
2026-04-22 14:16 41.82826 -87.90160 7044 ft 289 kts 163°
2026-04-22 14:16 41.80895 -87.89314 7931 ft 294 kts 164°
2026-04-22 14:17 41.78941 -87.88464 8807 ft 299 kts 163°
2026-04-22 14:17 41.76942 -87.87598 9644 ft 305 kts 163°
2026-04-22 14:17 41.74904 -87.86715 10419 ft 312 kts 163°
2026-04-22 14:17 41.72796 -87.85802 10944 ft 329 kts 163°
2026-04-22 14:18 41.70546 -87.84830 11449 ft 345 kts 163°
2026-04-22 14:18 41.68219 -87.83824 11943 ft 361 kts 163°
2026-04-22 14:18 41.65783 -87.82771 12392 ft 378 kts 163°
2026-04-22 14:18 41.63230 -87.81670 12844 ft 394 kts 163°
2026-04-22 14:19 41.60563 -87.80519 13411 ft 405 kts 163°
2026-04-22 14:19 41.57889 -87.79364 14192 ft 409 kts 163°
2026-04-22 14:19 41.55181 -87.78195 14977 ft 414 kts 163°
2026-04-22 14:19 41.52441 -87.77013 15726 ft 418 kts 163°
2026-04-22 14:20 41.46854 -87.74613 17203 ft 427 kts 163°
2026-04-22 14:20 41.43997 -87.73495 17926 ft 432 kts 166°
2026-04-22 14:20 41.41011 -87.72694 18631 ft 434 kts 174°
2026-04-22 14:21 41.34996 -87.72227 19919 ft 441 kts 181°
2026-04-22 14:21 41.31892 -87.72247 20524 ft 445 kts 183°
2026-04-22 14:22 41.24633 -87.72417 21915 ft 454 kts 183°
2026-04-22 14:22 41.22529 -87.72466 22251 ft 458 kts 183°
2026-04-22 14:22 41.16109 -87.72270 23307 ft 468 kts 178°
2026-04-22 14:23 41.12847 -87.71884 23905 ft 471 kts 176°
2026-04-22 14:23 41.09596 -87.71419 24413 ft 476 kts 175°
2026-04-22 14:23 41.06263 -87.70912 24969 ft 479 kts 175°
2026-04-22 14:23 41.02948 -87.70408 25508 ft 482 kts 175°
2026-04-22 14:24 40.99648 -87.69916 26027 ft 485 kts 175°
2026-04-22 14:24 40.96258 -87.69423 26509 ft 489 kts 175°
2026-04-22 14:24 40.92860 -87.68939 26994 ft 492 kts 175°
2026-04-22 14:24 40.89476 -87.68468 27428 ft 496 kts 175°
2026-04-22 14:25 40.86012 -87.67992 27876 ft 499 kts 175°
2026-04-22 14:25 40.82586 -87.67526 28586 ft 496 kts 175°
2026-04-22 14:25 40.79186 -87.67066 29321 ft 492 kts 175°
2026-04-22 14:25 40.75799 -87.66612 29875 ft 491 kts 175°
2026-04-22 14:26 40.72372 -87.66154 30397 ft 492 kts 175°
2026-04-22 14:26 40.69019 -87.65707 31012 ft 489 kts 175°
2026-04-22 14:26 40.65632 -87.65256 31491 ft 490 kts 175°
2026-04-22 14:26 40.62210 -87.64801 31941 ft 490 kts 175°
2026-04-22 14:27 40.58860 -87.64356 32420 ft 490 kts 175°
2026-04-22 14:27 40.55468 -87.63905 32939 ft 489 kts 175°
2026-04-22 14:27 40.52054 -87.63453 33380 ft 489 kts 175°
2026-04-22 14:27 40.48687 -87.63007 33862 ft 488 kts 175°
2026-04-22 14:28 40.45354 -87.62566 34318 ft 488 kts 175°
2026-04-22 14:28 40.41938 -87.62114 34677 ft 490 kts 175°
2026-04-22 14:28 40.38546 -87.61666 35177 ft 489 kts 175°
2026-04-22 14:28 40.35208 -87.61150 35687 ft 488 kts 172°
2026-04-22 14:29 40.31857 -87.60316 36155 ft 488 kts 167°
2026-04-22 14:29 40.28637 -87.59080 36529 ft 489 kts 161°
2026-04-22 14:29 40.25458 -87.57421 36893 ft 490 kts 156°
2026-04-22 14:29 40.22380 -87.55523 37070 ft 493 kts 153°
2026-04-22 14:30 40.19328 -87.53497 37076 ft 493 kts 152°
2026-04-22 14:30 40.13274 -87.49380 37073 ft 491 kts 152°
2026-04-22 14:31 40.07196 -87.45348 37070 ft 492 kts 153°
2026-04-22 14:31 40.01087 -87.41415 37075 ft 490 kts 153°
2026-04-22 14:32 39.94966 -87.37485 37075 ft 490 kts 152°
2026-04-22 14:32 39.88908 -87.33422 37078 ft 491 kts 152°
2026-04-22 14:33 39.82856 -87.29315 37082 ft 490 kts 152°
2026-04-22 14:33 39.76821 -87.25237 37089 ft 490 kts 152°
2026-04-22 14:34 39.70764 -87.21168 37090 ft 489 kts 152°
2026-04-22 14:34 39.64739 -87.17139 37097 ft 489 kts 153°
2026-04-22 14:35 39.58718 -87.13129 37099 ft 491 kts 152°
2026-04-22 14:35 39.52643 -87.09091 37102 ft 491 kts 152°
2026-04-22 14:36 39.46567 -87.05061 37103 ft 490 kts 152°
2026-04-22 14:36 39.40543 -87.01073 37107 ft 489 kts 152°
2026-04-22 14:37 39.34455 -86.97050 37107 ft 489 kts 152°
2026-04-22 14:37 39.28404 -86.93060 37114 ft 490 kts 152°
2026-04-22 14:38 39.22329 -86.89062 37116 ft 490 kts 152°
2026-04-22 14:38 39.16299 -86.85099 37118 ft 490 kts 152°
2026-04-22 14:39 39.10242 -86.81038 37123 ft 490 kts 151°
2026-04-22 14:39 39.04236 -86.76941 37124 ft 490 kts 151°
2026-04-22 14:40 38.95232 -86.70803 37126 ft 491 kts 151°
2026-04-22 14:40 38.89197 -86.66713 37129 ft 489 kts 151°
2026-04-22 14:41 38.83195 -86.62661 37130 ft 491 kts 151°
2026-04-22 14:41 38.77166 -86.58602 37136 ft 489 kts 151°
2026-04-22 14:42 38.71144 -86.54555 37132 ft 490 kts 151°
2026-04-22 14:42 38.65116 -86.50513 37139 ft 490 kts 151°
2026-04-22 14:43 38.59074 -86.46471 37144 ft 490 kts 151°
2026-04-22 14:43 38.53044 -86.42443 37148 ft 490 kts 151°
2026-04-22 14:44 38.46999 -86.38413 37143 ft 489 kts 151°
2026-04-22 14:44 38.40963 -86.34396 37144 ft 490 kts 152°
2026-04-22 14:45 38.34951 -86.30405 37143 ft 490 kts 152°
2026-04-22 14:45 38.28888 -86.26386 37155 ft 489 kts 152°
2026-04-22 14:46 38.22871 -86.22406 37154 ft 489 kts 152°
2026-04-22 14:46 38.16859 -86.18436 37155 ft 489 kts 152°
2026-04-22 14:47 38.10807 -86.14445 37161 ft 489 kts 151°
2026-04-22 14:47 38.04770 -86.10473 37162 ft 488 kts 151°
2026-04-22 14:48 37.98747 -86.06517 37165 ft 488 kts 151°
2026-04-22 14:48 37.92735 -86.02575 37168 ft 488 kts 151°
2026-04-22 14:49 37.86721 -85.98640 37170 ft 488 kts 151°
2026-04-22 14:49 37.80658 -85.94682 37177 ft 488 kts 151°
2026-04-22 14:50 37.74655 -85.90769 37180 ft 488 kts 151°
2026-04-22 14:50 37.68638 -85.86854 37182 ft 488 kts 152°
2026-04-22 14:51 37.62588 -85.82925 37186 ft 489 kts 151°
2026-04-22 14:51 37.56569 -85.79024 37182 ft 488 kts 151°
2026-04-22 14:52 37.50539 -85.75122 37182 ft 487 kts 151°
2026-04-22 14:52 37.44516 -85.71234 37189 ft 488 kts 151°
2026-04-22 14:53 37.38477 -85.67342 37187 ft 488 kts 151°
2026-04-22 14:53 37.32434 -85.63453 37196 ft 488 kts 151°
2026-04-22 14:54 37.26405 -85.59579 37190 ft 488 kts 151°
2026-04-22 14:54 37.20401 -85.55730 37197 ft 487 kts 151°
2026-04-22 14:55 37.14357 -85.51861 37196 ft 486 kts 151°
2026-04-22 14:55 37.08324 -85.48007 37203 ft 487 kts 151°
2026-04-22 14:56 37.02300 -85.44166 37200 ft 487 kts 150°
2026-04-22 14:56 36.96279 -85.40334 37206 ft 486 kts 151°
2026-04-22 14:57 36.90275 -85.36518 37207 ft 485 kts 151°
2026-04-22 14:57 36.84977 -85.33158 37216 ft 485 kts 152°
2026-04-22 14:58 36.78949 -85.29340 37215 ft 485 kts 152°
2026-04-22 14:58 36.72978 -85.25565 37215 ft 485 kts 152°
2026-04-22 14:59 36.66962 -85.21770 37214 ft 483 kts 152°
2026-04-22 14:59 36.60879 -85.18310 37220 ft 484 kts 159°
2026-04-22 15:00 36.54378 -85.16035 37227 ft 486 kts 167°
2026-04-22 15:00 36.47789 -85.14385 37231 ft 485 kts 169°
2026-04-22 15:01 36.41135 -85.12817 37227 ft 485 kts 169°
2026-04-22 15:01 36.34535 -85.11214 37237 ft 485 kts 168°
2026-04-22 15:02 36.27938 -85.09563 37250 ft 484 kts 168°
2026-04-22 15:02 36.21305 -85.07873 37253 ft 485 kts 168°
2026-04-22 15:03 36.14747 -85.06191 37264 ft 484 kts 168°
2026-04-22 15:03 36.08166 -85.04504 37270 ft 483 kts 168°
2026-04-22 15:04 36.01593 -85.02820 37272 ft 483 kts 168°
2026-04-22 15:04 35.95032 -85.01141 37278 ft 483 kts 168°
2026-04-22 15:05 35.88441 -84.99459 37276 ft 482 kts 168°
2026-04-22 15:05 35.81881 -84.97787 37273 ft 482 kts 168°
2026-04-22 15:06 35.75352 -84.96126 37271 ft 482 kts 168°
2026-04-22 15:06 35.68795 -84.94460 37266 ft 480 kts 168°
2026-04-22 15:07 35.62241 -84.92799 37258 ft 482 kts 168°
2026-04-22 15:07 35.55670 -84.91135 37245 ft 482 kts 168°
2026-04-22 15:08 35.49132 -84.89479 37250 ft 480 kts 168°
2026-04-22 15:08 35.42601 -84.87827 37251 ft 480 kts 168°
2026-04-22 15:09 35.36103 -84.86187 37254 ft 479 kts 168°
2026-04-22 15:09 35.29575 -84.84541 37253 ft 479 kts 168°
2026-04-22 15:10 35.23044 -84.82899 37255 ft 479 kts 168°
2026-04-22 15:10 35.16512 -84.81257 37259 ft 479 kts 168°
2026-04-22 15:11 35.09984 -84.79620 37256 ft 478 kts 168°
2026-04-22 15:11 35.03500 -84.77998 37260 ft 477 kts 168°
2026-04-22 15:12 34.97003 -84.76374 37254 ft 477 kts 168°
2026-04-22 15:12 34.90495 -84.74751 37260 ft 477 kts 168°
2026-04-22 15:13 34.84000 -84.73132 37261 ft 477 kts 168°
2026-04-22 15:13 34.77523 -84.71521 37261 ft 478 kts 168°
2026-04-22 15:14 34.70987 -84.69898 37266 ft 477 kts 168°
2026-04-22 15:14 34.64502 -84.68290 37264 ft 477 kts 168°
2026-04-22 15:15 34.57983 -84.66677 37263 ft 478 kts 168°
2026-04-22 15:15 34.51482 -84.65019 37261 ft 477 kts 167°
2026-04-22 15:16 34.45001 -84.63313 37264 ft 478 kts 167°
2026-04-22 15:16 34.38496 -84.61597 37268 ft 477 kts 167°
2026-04-22 15:17 34.32041 -84.59905 37267 ft 476 kts 167°
2026-04-22 15:17 34.25573 -84.58217 37268 ft 477 kts 168°
2026-04-22 15:18 34.19046 -84.56519 37270 ft 477 kts 168°
2026-04-22 15:18 34.12584 -84.54842 37274 ft 477 kts 168°
2026-04-22 15:19 34.06087 -84.53159 37272 ft 477 kts 168°
2026-04-22 15:19 33.99617 -84.51523 37272 ft 477 kts 169°
2026-04-22 15:20 33.93090 -84.50063 37277 ft 477 kts 170°
2026-04-22 15:20 33.86538 -84.48659 37273 ft 477 kts 170°
2026-04-22 15:21 33.80012 -84.47254 37273 ft 476 kts 170°
2026-04-22 15:21 33.73516 -84.45842 37271 ft 477 kts 170°
2026-04-22 15:22 33.66959 -84.44409 37273 ft 477 kts 170°
2026-04-22 15:22 33.60507 -84.42722 37272 ft 476 kts 165°
2026-04-22 15:23 33.54198 -84.40308 37277 ft 475 kts 161°
2026-04-22 15:23 33.47947 -84.37682 37285 ft 475 kts 161°
2026-04-22 15:24 33.41760 -84.35103 37281 ft 477 kts 161°
2026-04-22 15:24 33.35434 -84.32521 37290 ft 477 kts 162°
2026-04-22 15:25 33.29190 -84.30007 37288 ft 476 kts 162°
2026-04-22 15:25 33.22921 -84.27502 37285 ft 476 kts 163°
2026-04-22 15:26 33.16631 -84.24994 37296 ft 474 kts 163°
2026-04-22 15:26 33.10370 -84.22502 37275 ft 473 kts 163°
2026-04-22 15:27 33.04128 -84.20023 37281 ft 474 kts 163°
2026-04-22 15:27 32.97900 -84.17554 37276 ft 473 kts 163°
2026-04-22 15:28 32.91646 -84.15077 37293 ft 474 kts 163°
2026-04-22 15:28 32.85389 -84.12602 37282 ft 474 kts 163°
2026-04-22 15:29 32.79158 -84.10143 37269 ft 473 kts 163°
2026-04-22 15:30 32.69799 -84.06453 37272 ft 474 kts 163°
2026-04-22 15:30 32.63527 -84.03985 37276 ft 473 kts 164°
2026-04-22 15:31 32.57307 -84.01541 37261 ft 473 kts 164°
2026-04-22 15:31 32.51070 -83.99094 37272 ft 473 kts 164°
2026-04-22 15:32 32.44816 -83.96645 37270 ft 472 kts 164°
2026-04-22 15:32 32.38605 -83.94215 37268 ft 471 kts 164°
2026-04-22 15:33 32.32370 -83.91779 37279 ft 469 kts 165°
2026-04-22 15:33 32.26170 -83.89361 37268 ft 471 kts 165°
2026-04-22 15:34 32.19934 -83.86934 37264 ft 470 kts 165°
2026-04-22 15:34 32.13738 -83.84525 37270 ft 471 kts 165°
2026-04-22 15:35 32.07547 -83.82120 37274 ft 469 kts 165°
2026-04-22 15:35 32.01347 -83.79714 37279 ft 468 kts 165°
2026-04-22 15:36 31.95161 -83.77319 37280 ft 469 kts 165°
2026-04-22 15:36 31.88943 -83.74916 37274 ft 469 kts 165°
2026-04-22 15:37 31.82772 -83.72533 37272 ft 470 kts 166°
2026-04-22 15:37 31.76522 -83.70124 37266 ft 471 kts 166°
2026-04-22 15:38 31.70341 -83.67744 37262 ft 469 kts 166°
2026-04-22 15:38 31.61050 -83.64171 37261 ft 469 kts 166°
2026-04-22 15:39 31.54817 -83.61781 37266 ft 469 kts 166°
2026-04-22 15:39 31.48638 -83.59415 37271 ft 469 kts 166°
2026-04-22 15:40 31.42429 -83.57038 37274 ft 470 kts 167°
2026-04-22 15:40 31.36173 -83.54649 37273 ft 470 kts 167°
2026-04-22 15:41 31.30008 -83.52294 37269 ft 469 kts 167°
2026-04-22 15:41 31.23771 -83.49918 37262 ft 468 kts 167°
2026-04-22 15:42 31.17601 -83.47570 37257 ft 469 kts 167°
2026-04-22 15:42 31.11382 -83.45207 37256 ft 468 kts 167°
2026-04-22 15:43 31.05199 -83.42861 37257 ft 469 kts 167°
2026-04-22 15:43 30.98989 -83.40508 37263 ft 468 kts 168°
2026-04-22 15:44 30.92816 -83.38173 37268 ft 469 kts 168°
2026-04-22 15:44 30.86586 -83.35819 37267 ft 469 kts 168°
2026-04-22 15:45 30.80377 -83.33475 37271 ft 468 kts 168°
2026-04-22 15:45 30.74151 -83.31129 37273 ft 470 kts 169°
2026-04-22 15:46 30.68024 -83.28570 37272 ft 473 kts 163°
2026-04-22 15:46 30.62007 -83.25386 37268 ft 477 kts 161°
2026-04-22 15:47 30.56046 -83.22049 37269 ft 477 kts 160°
2026-04-22 15:47 30.50055 -83.18731 37264 ft 477 kts 161°
2026-04-22 15:48 30.44064 -83.15469 37260 ft 476 kts 161°
2026-04-22 15:48 30.38019 -83.12212 37256 ft 476 kts 161°
2026-04-22 15:49 30.32039 -83.09006 37257 ft 475 kts 161°
2026-04-22 15:49 30.26031 -83.05795 37253 ft 476 kts 162°
2026-04-22 15:50 30.20007 -83.02581 37242 ft 478 kts 162°
2026-04-22 15:50 30.13951 -82.99357 37240 ft 478 kts 162°
2026-04-22 15:51 30.07905 -82.96135 37238 ft 478 kts 162°
2026-04-22 15:51 30.01890 -82.92935 37246 ft 477 kts 162°
2026-04-22 15:52 29.95846 -82.89726 37283 ft 478 kts 162°
2026-04-22 15:52 29.89853 -82.86545 37243 ft 475 kts 162°
2026-04-22 15:53 29.83811 -82.83350 37239 ft 478 kts 162°
2026-04-22 15:53 29.77784 -82.80163 37248 ft 478 kts 162°
2026-04-22 15:54 29.71734 -82.76967 37242 ft 478 kts 162°
2026-04-22 15:54 29.65696 -82.73781 37247 ft 478 kts 162°
2026-04-22 15:55 29.59665 -82.70606 37251 ft 478 kts 162°
2026-04-22 15:55 29.53607 -82.67418 37250 ft 478 kts 162°
2026-04-22 15:56 29.47591 -82.64258 37253 ft 478 kts 162°
2026-04-22 15:56 29.41534 -82.61080 37254 ft 478 kts 162°
2026-04-22 15:57 29.35491 -82.57914 37254 ft 477 kts 162°
2026-04-22 15:57 29.29456 -82.54778 37253 ft 478 kts 163°
2026-04-22 15:58 29.23257 -82.52228 37253 ft 468 kts 173°
2026-04-22 15:58 29.16894 -82.50813 37255 ft 461 kts 179°
2026-04-22 15:59 29.10564 -82.49761 37254 ft 460 kts 180°
2026-04-22 15:59 29.04242 -82.48729 37255 ft 460 kts 180°
2026-04-22 16:00 28.97883 -82.47648 37262 ft 460 kts 179°
2026-04-22 16:00 28.91564 -82.46540 37258 ft 462 kts 179°
2026-04-22 16:01 28.85199 -82.45404 37255 ft 461 kts 179°
2026-04-22 16:01 28.78861 -82.44265 37259 ft 462 kts 179°
2026-04-22 16:02 28.72507 -82.43120 37259 ft 461 kts 179°
2026-04-22 16:02 28.66154 -82.41976 37254 ft 461 kts 179°
2026-04-22 16:03 28.59830 -82.40839 37254 ft 462 kts 179°
2026-04-22 16:03 28.53485 -82.39702 37251 ft 462 kts 179°
2026-04-22 16:04 28.47113 -82.38558 37248 ft 462 kts 179°
2026-04-22 16:04 28.40772 -82.37423 37251 ft 463 kts 179°
2026-04-22 16:05 28.34417 -82.36285 37249 ft 462 kts 179°
2026-04-22 16:05 28.28044 -82.35147 37251 ft 463 kts 179°
2026-04-22 16:06 28.21690 -82.34011 37245 ft 461 kts 180°
2026-04-22 16:06 28.15362 -82.32884 37243 ft 462 kts 180°
2026-04-22 16:07 28.08962 -82.31747 37243 ft 463 kts 180°
2026-04-22 16:07 28.02604 -82.30547 37237 ft 467 kts 177°
2026-04-22 16:08 27.96285 -82.28667 37242 ft 472 kts 172°
2026-04-22 16:08 27.90019 -82.26459 37237 ft 475 kts 171°
2026-04-22 16:09 27.86848 -82.25326 37029 ft 472 kts 171°
2026-04-22 16:09 27.83771 -82.24235 36521 ft 468 kts 171°
2026-04-22 16:09 27.80649 -82.23141 35905 ft 465 kts 171°
2026-04-22 16:09 27.77549 -82.22070 35203 ft 465 kts 171°
2026-04-22 16:10 27.74486 -82.21023 34480 ft 465 kts 171°
2026-04-22 16:10 27.71369 -82.19965 33722 ft 465 kts 171°
2026-04-22 16:10 27.68279 -82.18921 32983 ft 466 kts 171°
2026-04-22 16:10 27.65148 -82.17867 32200 ft 467 kts 171°
2026-04-22 16:11 27.62034 -82.16820 31485 ft 467 kts 170°
2026-04-22 16:11 27.58953 -82.15788 30946 ft 464 kts 170°
2026-04-22 16:11 27.55854 -82.14761 30359 ft 462 kts 170°
2026-04-22 16:11 27.52787 -82.13750 29757 ft 458 kts 170°
2026-04-22 16:12 27.49762 -82.12754 29161 ft 454 kts 170°
2026-04-22 16:12 27.46708 -82.11751 28547 ft 451 kts 170°
2026-04-22 16:12 27.43730 -82.10774 27955 ft 447 kts 170°
2026-04-22 16:12 27.40754 -82.09797 27351 ft 444 kts 169°
2026-04-22 16:13 27.37808 -82.08831 26755 ft 440 kts 169°
2026-04-22 16:13 27.34907 -82.07880 26284 ft 434 kts 169°
2026-04-22 16:13 27.32007 -82.06921 26211 ft 427 kts 169°
2026-04-22 16:13 27.29149 -82.05971 26207 ft 434 kts 169°
2026-04-22 16:14 27.26244 -82.05004 26202 ft 434 kts 169°
2026-04-22 16:14 27.23375 -82.04046 26204 ft 433 kts 169°
2026-04-22 16:14 27.20446 -82.03065 26207 ft 434 kts 169°
2026-04-22 16:14 27.17585 -82.02109 26208 ft 434 kts 169°
2026-04-22 16:15 27.14683 -82.01138 26211 ft 432 kts 169°
2026-04-22 16:15 27.11780 -82.00167 26211 ft 433 kts 169°
2026-04-22 16:15 27.08921 -81.99210 26024 ft 433 kts 168°
2026-04-22 16:15 27.06065 -81.98027 25574 ft 432 kts 160°
2026-04-22 16:16 27.03474 -81.96353 25241 ft 434 kts 147°
2026-04-22 16:16 27.01213 -81.94089 25217 ft 442 kts 137°
2026-04-22 16:16 26.99119 -81.91504 25214 ft 446 kts 134°
2026-04-22 16:16 26.97133 -81.88872 25214 ft 447 kts 132°
2026-04-22 16:17 26.95166 -81.86190 24973 ft 443 kts 131°
2026-04-22 16:17 26.93226 -81.83518 24335 ft 443 kts 131°
2026-04-22 16:17 26.91274 -81.80828 23665 ft 442 kts 131°
2026-04-22 16:17 26.89349 -81.78188 23051 ft 439 kts 131°
2026-04-22 16:18 26.87431 -81.75566 22469 ft 436 kts 131°
2026-04-22 16:18 26.85509 -81.72955 22242 ft 425 kts 131°
2026-04-22 16:18 26.83653 -81.70477 22215 ft 419 kts 132°
2026-04-22 16:18 26.81743 -81.67962 22211 ft 424 kts 132°
2026-04-22 16:19 26.79825 -81.65452 22209 ft 423 kts 132°
2026-04-22 16:19 26.77912 -81.62953 22052 ft 425 kts 132°
2026-04-22 16:19 26.75992 -81.60446 21647 ft 421 kts 132°
2026-04-22 16:19 26.74119 -81.57998 21126 ft 418 kts 132°
2026-04-22 16:20 26.72254 -81.55530 20563 ft 415 kts 130°
2026-04-22 16:20 26.70612 -81.52859 19985 ft 414 kts 120°
2026-04-22 16:20 26.69497 -81.49922 19426 ft 412 kts 106°
2026-04-22 16:20 26.69005 -81.46836 19218 ft 399 kts 94°
2026-04-22 16:21 26.68905 -81.43780 19050 ft 389 kts 88°
2026-04-22 16:21 26.69148 -81.40782 18512 ft 387 kts 79°
2026-04-22 16:21 26.69711 -81.37885 17934 ft 386 kts 74°
2026-04-22 16:21 26.70432 -81.35010 17466 ft 379 kts 72°
2026-04-22 16:22 26.71908 -81.29443 16030 ft 371 kts 73°
2026-04-22 16:22 26.72602 -81.26685 15480 ft 365 kts 74°
2026-04-22 16:22 26.73257 -81.23987 15021 ft 362 kts 74°
2026-04-22 16:23 26.74536 -81.18549 14928 ft 363 kts 75°
2026-04-22 16:23 26.75170 -81.15820 14928 ft 362 kts 75°
2026-04-22 16:23 26.75801 -81.13103 14852 ft 360 kts 75°
2026-04-22 16:24 26.76420 -81.10432 14435 ft 357 kts 75°
2026-04-22 16:24 26.77665 -81.05072 13322 ft 355 kts 75°
2026-04-22 16:24 26.78280 -81.02416 12798 ft 352 kts 75°
2026-04-22 16:25 26.78739 -80.99757 12280 ft 350 kts 82°
2026-04-22 16:25 26.79062 -80.94363 11258 ft 345 kts 88°
2026-04-22 16:25 26.79137 -80.91679 10739 ft 342 kts 88°
2026-04-22 16:26 26.79216 -80.89053 10385 ft 334 kts 87°
2026-04-22 16:26 26.79303 -80.86525 10228 ft 320 kts 87°
2026-04-22 16:26 26.79397 -80.84095 10123 ft 306 kts 86°
2026-04-22 16:26 26.79493 -80.81764 9910 ft 297 kts 87°
2026-04-22 16:27 26.79588 -80.79473 9521 ft 295 kts 87°
2026-04-22 16:27 26.79654 -80.77174 9151 ft 292 kts 90°
2026-04-22 16:27 26.79405 -80.74951 8828 ft 288 kts 104°
2026-04-22 16:27 26.78766 -80.72834 8458 ft 286 kts 111°
2026-04-22 16:28 26.78024 -80.70818 8115 ft 276 kts 111°
2026-04-22 16:28 26.77301 -80.68854 7799 ft 269 kts 111°
2026-04-22 16:28 26.76628 -80.66925 7467 ft 266 kts 110°
2026-04-22 16:28 26.75989 -80.65000 7168 ft 262 kts 109°
2026-04-22 16:29 26.75379 -80.63094 6806 ft 261 kts 108°
2026-04-22 16:29 26.74766 -80.61189 6489 ft 258 kts 109°
2026-04-22 16:29 26.74150 -80.59316 6186 ft 254 kts 109°
2026-04-22 16:29 26.73543 -80.57504 5939 ft 249 kts 109°
2026-04-22 16:30 26.72946 -80.55688 5648 ft 245 kts 108°
2026-04-22 16:30 26.72383 -80.53931 5437 ft 239 kts 109°
2026-04-22 16:30 26.71773 -80.52199 5175 ft 235 kts 110°
2026-04-22 16:30 26.71160 -80.50561 5055 ft 225 kts 111°
2026-04-22 16:31 26.70555 -80.48973 4987 ft 214 kts 110°
2026-04-22 16:31 26.70096 -80.47417 4946 ft 213 kts 101°
2026-04-22 16:31 26.69885 -80.45818 4952 ft 206 kts 94°
2026-04-22 16:31 26.69772 -80.44227 5077 ft 210 kts 94°
2026-04-22 16:32 26.69656 -80.42584 4966 ft 208 kts 93°
2026-04-22 16:32 26.69580 -80.40964 4948 ft 208 kts 91°
2026-04-22 16:32 26.69534 -80.39335 4800 ft 217 kts 91°
2026-04-22 16:32 26.69490 -80.37689 4672 ft 205 kts 91°
2026-04-22 16:33 26.69442 -80.36157 4546 ft 194 kts 92°
2026-04-22 16:33 26.69374 -80.34644 4274 ft 191 kts 93°
2026-04-22 16:33 26.69289 -80.33195 4017 ft 189 kts 93°
2026-04-22 16:33 26.69225 -80.31752 3818 ft 181 kts 92°
2026-04-22 16:34 26.69183 -80.30339 3544 ft 179 kts 92°
2026-04-22 16:34 26.69128 -80.28981 3243 ft 173 kts 92°
2026-04-22 16:34 26.69059 -80.27695 2965 ft 163 kts 93°
2026-04-22 16:34 26.68988 -80.26466 2728 ft 149 kts 92°
2026-04-22 16:35 26.68951 -80.25354 2716 ft 143 kts 91°
2026-04-22 16:35 26.68911 -80.24250 2450 ft 141 kts 91°
2026-04-22 16:35 26.68874 -80.23199 2447 ft 126 kts 91°
2026-04-22 16:35 26.68850 -80.22154 2370 ft 142 kts 91°
2026-04-22 16:36 26.68795 -80.21062 1958 ft 140 kts 93°
2026-04-22 16:36 26.68734 -80.20033 1720 ft 128 kts 92°
2026-04-22 16:36 26.68681 -80.19041 1531 ft 125 kts 92°
2026-04-22 16:36 26.68643 -80.18080 1344 ft 125 kts 90°
2026-04-22 16:37 26.68624 -80.17117 1220 ft 124 kts 90°
2026-04-22 16:37 26.68579 -80.16164 1038 ft 123 kts 92°
2026-04-22 16:37 26.68521 -80.15207 876 ft 124 kts 92°
2026-04-22 16:37 26.68465 -80.14239 705 ft 125 kts 92°
2026-04-22 16:38 26.68418 -80.13264 519 ft 126 kts 91°
2026-04-22 16:38 26.68380 -80.12294 352 ft 123 kts 91°
2026-04-22 16:38 26.68337 -80.11339 179 ft 124 kts 90°
2026-04-22 16:38 26.68299 -80.10390 46 ft 121 kts 90°
2026-04-22 16:39 26.68266 -80.09532 18 ft 86 kts 92°
2026-04-22 16:39 26.68243 -80.09079 18 ft 42 kts 92°
2026-04-22 16:39 26.68242 -80.08886 18 ft 10 kts 74°
2026-04-22 16:39 26.68295 -80.08846 18 ft 9 kts 15°
2026-04-22 16:40 26.68354 -80.08841 18 ft 8 kts
2026-04-22 16:40 26.68416 -80.08843 18 ft 12 kts 337°
2026-04-22 16:40 26.68453 -80.09077 18 ft 12 kts 303°
2026-04-22 16:41 26.68529 -80.09092 18 ft 11 kts
2026-04-22 16:41 26.68602 -80.09089 18 ft 9 kts 355°
2026-04-22 16:41 26.68655 -80.09131 18 ft 9 kts 309°
2026-04-22 16:41 26.68694 -80.09179 17 ft 6 kts 318°
2026-04-22 16:42 26.68714 -80.09199 18 ft 2 kts 318°
2026-04-22 16:42 26.68718 -80.09203 18 ft 0 kts 318°